GW4707 Weather Reports


Display with metric or nautical units.
time (UTC)temp
F
wind
direction
speed
MPH
gust
MPH
rain 1hr
in
rain 24hr
in
rain mn
in
humidity
%
barometer
mb
20260507130504 78 202 4.0 11.0 0.00 0.00 0.00 35 1019.5
20260507130021 79 180 4.0 11.0 0.00 0.00 0.00 34 1019.4
20260507125504 79 178 3.0 14.0 0.00 0.00 0.00 33 1019.4
20260507125004 79 215 8.0 14.0 0.00 0.00 0.00 32 1019.4
20260507124513 80 188 6.0 14.0 0.00 0.00 0.00 32 1019.4
20260507124004 81 220 7.0 14.0 0.00 0.00 0.00 31 1019.4
20260507123505 81 202 2.0 12.0 0.00 0.00 0.00 31 1019.5
20260507123017 80 154 4.0 10.0 0.00 0.00 0.00 31 1019.4
20260507122505 80 161 4.0 9.0 0.00 0.00 0.00 30 1019.4
20260507122009 79 200 3.0 10.0 0.00 0.00 0.00 32 1019.4
20260507121522 78 216 1.0 10.0 0.00 0.00 0.00 33 1019.4
20260507121008 76 161 3.0 7.0 0.00 0.00 0.00 37 1019.5
20260507120510 75 227 1.0 7.0 0.00 0.00 0.00 42 1019.5
20260507120022 75 70 4.0 8.0 0.00 0.00 0.00 41 1019.6
20260507115510 76 80 4.0 9.0 0.00 0.00 0.00 39 1019.6
20260507115004 77 84 4.0 9.0 0.00 0.00 0.00 39 1019.6
20260507114510 77 123 2.0 7.0 0.00 0.00 0.00 38 1019.6
20260507114004 78 86 3.0 8.0 0.00 0.00 0.00 37 1019.6
20260507113503 79 79 5.0 10.0 0.00 0.00 0.00 35 1019.6
20260507113017 80 67 2.0 10.0 0.00 0.00 0.00 32 1019.7
20260507112504 81 87 2.0 7.0 0.00 0.00 0.00 31 1019.7
20260507112007 82 205 1.0 6.0 0.00 0.00 0.00 30 1019.7
20260507111518 81 55 1.0 6.0 0.00 0.00 0.00 31 1019.6
20260507111006 81 113 2.0 5.0 0.00 0.00 0.00 32 1019.6
20260507110507 80 233 1.0 7.0 0.00 0.00 0.00 33 1019.6
20260507110030 79 134 1.0 8.0 0.00 0.00 0.00 34 1019.7
20260507105507 78 188 4.0 10.0 0.00 0.00 0.00 34 1019.8
20260507105007 76 169 3.0 10.0 0.00 0.00 0.00 35 1019.9
20260507104525 75 160 4.0 10.0 0.00 0.00 0.00 38 1020.0
20260507104014 73 76 0.0 7.0 0.00 0.00 0.00 47 1020.0
20260507103506 72 89 2.0 9.0 0.00 0.00 0.00 48 1020.0
20260507103012 72 66 1.0 9.0 0.00 0.00 0.00 48 1020.0
20260507102503 72 57 4.0 8.0 0.00 0.00 0.00 48 1020.0
20260507102004 72 122 2.0 9.0 0.00 0.00 0.00 50 1019.9
20260507101517 72 66 1.0 9.0 0.00 0.00 0.00 52 1020.0
20260507101004 72 113 1.0 8.0 0.00 0.00 0.00 53 1020.0
20260507100508 71 123 2.0 10.0 0.00 0.00 0.00 52 1020.0
20260507100025 71 113 3.0 10.0 0.00 0.00 0.00 52 1020.0
20260507095507 71 360 1.0 9.0 0.00 0.00 0.00 50 1020.0
20260507095007 72 80 2.0 9.0 0.00 0.00 0.00 49 1020.0
20260507094526 72 360 3.0 9.0 0.00 0.00 0.00 47 1019.9
20260507094007 73 82 3.0 8.0 0.00 0.00 0.00 45 1020.0
20260507093511 73 109 3.0 8.0 0.00 0.00 0.00 45 1020.0
20260507093036 73 159 1.0 6.0 0.00 0.00 0.00 46 1020.1
20260507092509 73 74 1.0 6.0 0.00 0.00 0.00 47 1020.1
20260507092003 72 123 1.0 5.0 0.00 0.00 0.00 48 1020.1
20260507091518 72 360 2.0 8.0 0.00 0.00 0.00 49 1020.0
20260507091006 72 360 3.0 8.0 0.00 0.00 0.00 49 1020.0
20260507090507 71 360 2.0 9.0 0.00 0.00 0.00 48 1020.2
20260507090019 71 360 3.0 9.0 0.00 0.00 0.00 49 1020.2
20260507085505 71 360 2.0 8.0 0.00 0.00 0.00 48 1020.1
20260507085006 71 360 2.0 7.0 0.00 0.00 0.00 49 1020.2
20260507084525 72 51 2.0 6.0 0.00 0.00 0.00 48 1020.3
20260507084009 72 68 2.0 6.0 0.00 0.00 0.00 48 1020.3
20260507083511 71 138 1.0 9.0 0.00 0.00 0.00 48 1020.2
20260507083026 71 91 2.0 9.0 0.00 0.00 0.00 48 1020.1
20260507082509 71 360 2.0 8.0 0.00 0.00 0.00 47 1020.1
20260507082015 71 82 2.0 7.0 0.00 0.00 0.00 48 1020.2
20260507081526 70 123 2.0 7.0 0.00 0.00 0.00 49 1020.2
20260507081008 70 360 2.0 9.0 0.00 0.00 0.00 51 1020.2
20260507080504 70 126 3.0 11.0 0.00 0.00 0.00 52 1020.2
20260507080016 69 360 2.0 11.0 0.00 0.00 0.00 52 1020.2
20260507075504 69 360 2.0 8.0 0.00 0.00 0.00 53 1020.2
20260507075005 69 360 1.0 8.0 0.00 0.00 0.00 53 1020.3
20260507074520 68 360 1.0 6.0 0.00 0.00 0.00 56 1020.3
20260507074006 68 360 2.0 10.0 0.00 0.00 0.00 56 1020.3
20260507073509 68 76 3.0 10.0 0.00 0.00 0.00 55 1020.3
20260507073028 69 360 3.0 10.0 0.00 0.00 0.00 54 1020.3
20260507072508 69 360 4.0 10.0 0.00 0.00 0.00 52 1020.2
20260507072009 69 360 3.0 9.0 0.00 0.00 0.00 51 1020.1
20260507071528 70 360 3.0 6.0 0.00 0.00 0.00 52 1020.2
20260507071009 70 128 1.0 6.0 0.00 0.00 0.00 54 1020.2
20260507070511 70 360 1.0 6.0 0.00 0.00 0.00 55 1020.2
20260507070026 70 76 1.0 6.0 0.00 0.00 0.00 54 1020.2
20260507065509 69 360 1.0 6.0 0.00 0.00 0.00 54 1020.2
20260507065009 68 360 1.0 6.0 0.00 0.00 0.00 55 1020.2
20260507064518 68 360 2.0 8.0 0.00 0.00 0.00 54 1020.2
20260507064005 68 68 3.0 8.0 0.00 0.00 0.00 52 1020.3
20260507063508 68 80 2.0 8.0 0.00 0.00 0.00 54 1020.3
20260507063036 68 58 0.0 3.0 0.00 0.00 0.00 59 1020.4
20260507062510 68 58 1.0 3.0 0.00 0.00 0.00 60 1020.3
20260507062007 68 40 0.0 3.0 0.00 0.00 0.00 61 1020.5
20260507061527 67 33 0.0 2.0 0.00 0.00 0.00 62 1020.4
20260507061009 67 60 0.0 3.0 0.00 0.00 0.00 64 1020.3
20260507060508 66 360 0.0 3.0 0.00 0.00 0.00 64 1020.3
20260507060040 66 67 1.0 3.0 0.00 0.00 0.00 65 1020.3
20260507055509 66 66 1.0 3.0 0.00 0.00 0.00 68 1020.3
20260507055017 65 59 0.0 3.0 0.00 0.00 0.00 70 1020.3
20260507054527 65 360 1.0 3.0 0.00 0.00 0.00 69 1020.3
20260507054010 65 39 1.0 3.0 0.00 0.00 0.00 69 1020.2
20260507053505 65 37 0.0 2.0 0.00 0.00 0.00 70 1020.2
20260507053021 65 360 0.0 2.0 0.00 0.00 0.00 70 1020.2
20260507052505 64 38 1.0 2.0 0.00 0.00 0.00 72 1020.1
20260507052008 64 360 0.0 2.0 0.00 0.00 0.00 73 1020.0
20260507051526 63 360 0.0 2.0 0.00 0.00 0.00 74 1019.9
20260507051003 62 360 0.0 3.0 0.00 0.00 0.00 75 1019.9
20260507050504 62 360 1.0 3.0 0.00 0.00 0.00 76 1019.8
20260507050010 61 360 0.0 2.0 0.00 0.00 0.00 77 1019.8
20260507045504 60 360 0.0 2.0 0.00 0.00 0.00 78 1019.7
20260507045004 60 344 0.0 2.0 0.00 0.00 0.00 78 1019.7
20260507044515 60 344 0.0 2.0 0.00 0.00 0.00 78 1019.8
20260507044004 59 360 0.0 3.0 0.00 0.00 0.00 78 1019.7
20260507043501 59 360 0.0 3.0 0.00 0.00 0.00 78 1019.7
20260507043005 58 360 0.0 2.0 0.00 0.00 0.00 78 1019.6
20260507042503 58 360 0.0 2.0 0.00 0.00 0.00 78 1019.6
20260507042002 58 360 0.0 2.0 0.00 0.00 0.00 78 1019.5
20260507041505 57 360 0.0 2.0 0.00 0.00 0.00 78 1019.5
20260507041004 57 360 0.0 2.0 0.00 0.00 0.00 78 1019.5
20260507040504 57 360 0.0 2.0 0.00 0.00 0.00 77 1019.4
20260507040006 57 360 0.0 3.0 0.00 0.00 0.00 77 1019.2
20260507035505 56 360 0.0 4.0 0.00 0.00 0.00 77 1019.1
20260507035005 56 360 1.0 5.0 0.00 0.00 0.00 77 1019.0
20260507034526 56 360 3.0 5.0 0.00 0.00 0.00 76 1019.0
20260507034009 56 360 2.0 4.0 0.00 0.00 0.00 76 1018.9
20260507033509 56 360 2.0 4.0 0.00 0.00 0.00 75 1018.8
20260507033016 56 360 2.0 4.0 0.00 0.00 0.00 75 1018.7
20260507032507 56 360 1.0 4.0 0.00 0.00 0.00 75 1018.6
20260507032002 56 360 0.0 5.0 0.00 0.00 0.00 74 1018.6
20260507031504 57 360 3.0 5.0 0.00 0.00 0.00 74 1018.5
20260507031003 57 360 2.0 5.0 0.00 0.00 0.00 73 1018.5
20260507030504 57 360 2.0 5.0 0.00 0.00 0.00 73 1018.5
20260507030008 57 360 2.0 5.0 0.00 0.00 0.00 72 1018.4
20260507025503 57 360 1.0 4.0 0.00 0.00 0.00 72 1018.3
20260507025004 58 360 0.0 4.0 0.00 0.00 0.00 71 1018.4
20260507024510 58 360 1.0 4.0 0.00 0.00 0.00 71 1018.3
20260507024007 58 360 1.0 4.0 0.00 0.00 0.00 71 1018.4
20260507023505 58 360 2.0 4.0 0.00 0.00 0.00 71 1018.4
20260507023016 58 360 2.0 4.0 0.00 0.00 0.00 70 1018.4
20260507022507 58 360 0.0 2.0 0.00 0.00 0.00 70 1018.3
20260507022011 58 360 0.0 2.0 0.00 0.00 0.00 70 1018.3
20260507021516 58 360 1.0 3.0 0.00 0.00 0.00 70 1018.3
20260507021007 57 360 0.0 3.0 0.00 0.00 0.00 70 1018.3
20260507020503 57 360 0.0 3.0 0.00 0.00 0.00 70 1018.2
20260507020010 57 360 0.0 1.0 0.00 0.00 0.00 69 1018.2
20260507015503 57 360 0.0 1.0 0.00 0.00 0.00 69 1018.2
20260507015004 57 360 0.0 1.0 0.00 0.00 0.00 69 1018.0
20260507014508 57 360 0.0 0.0 0.00 0.00 0.00 69 1018.0
20260507014005 57 360 0.0 0.0 0.00 0.00 0.00 69 1018.0
20260507013505 57 360 0.0 4.0 0.00 0.00 0.00 69 1018.0
20260507013018 57 360 0.0 5.0 0.00 0.00 0.00 69 1018.0
20260507012503 57 360 1.0 6.0 0.00 0.00 0.00 68 1018.0
20260507012009 57 360 2.0 6.0 0.00 0.00 0.00 68 1018.1
20260507011515 57 360 3.0 6.0 0.00 0.00 0.00 68 1018.0
20260507011007 57 360 3.0 5.0 0.00 0.00 0.00 66 1018.0
20260507010508 57 360 1.0 4.0 0.00 0.00 0.00 66 1018.0
20260507010020 57 360 2.0 4.0 0.00 0.00 0.00 65 1018.0
20260507005508 57 360 2.0 4.0 0.00 0.00 0.00 65 1018.1
20260507005004 57 360 2.0 4.0 0.00 0.00 0.00 64 1018.2
20260507004506 57 360 2.0 4.0 0.00 0.00 0.00 63 1018.1
20260507004004 57 360 1.0 4.0 0.00 0.00 0.00 63 1018.1
20260507003504 58 360 2.0 4.0 0.00 0.00 0.00 62 1018.2
20260507003010 58 360 1.0 4.0 0.00 0.00 0.00 62 1018.2
20260507002505 58 360 1.0 4.0 0.00 0.00 0.00 61 1018.2
20260507002007 58 360 1.0 2.0 0.00 0.00 0.00 61 1018.2
20260507001515 58 360 0.0 3.0 0.00 0.00 0.00 61 1018.2
20260507001012 58 360 0.0 4.0 0.00 0.00 0.00 61 1018.2
20260507000507 58 360 2.0 5.0 0.00 0.00 0.00 61 1018.2
20260507000022 58 360 2.0 5.0 0.00 0.00 0.00 61 1018.1
20260506235511 58 360 2.0 5.0 0.00 0.00 0.00 61 1018.2
20260506235008 58 360 2.0 4.0 0.00 0.00 0.00 61 1018.2
20260506234529 58 360 2.0 5.0 0.00 0.00 0.00 61 1018.2
20260506234011 58 360 1.0 5.0 0.00 0.00 0.00 61 1018.2
20260506233503 58 360 2.0 5.0 0.00 0.00 0.00 61 1018.2
20260506233006 58 360 1.0 4.0 0.00 0.00 0.00 61 1018.2
20260506232504 58 360 2.0 5.0 0.00 0.00 0.00 61 1018.3
20260506232004 58 360 2.0 5.0 0.00 0.00 0.00 61 1018.3
20260506231509 58 360 2.0 4.0 0.00 0.00 0.00 62 1018.3
20260506231006 58 360 2.0 5.0 0.00 0.00 0.00 62 1018.4
20260506230505 58 360 2.0 5.0 0.00 0.00 0.00 63 1018.4
20260506230016 58 360 2.0 5.0 0.00 0.00 0.00 63 1018.4
20260506225504 58 360 2.0 5.0 0.00 0.00 0.00 64 1018.4
20260506225008 58 360 3.0 5.0 0.00 0.00 0.00 64 1018.5
20260506224520 58 360 3.0 5.0 0.00 0.00 0.00 65 1018.5
20260506224008 59 360 1.0 5.0 0.00 0.00 0.00 65 1018.5
20260506223508 59 360 2.0 5.0 0.00 0.00 0.00 64 1018.5
20260506223024 59 360 2.0 5.0 0.00 0.00 0.00 64 1018.6
20260506222507 59 360 3.0 6.0 0.00 0.00 0.00 64 1018.6
20260506222004 59 360 3.0 6.0 0.00 0.00 0.00 63 1018.7
20260506221510 59 360 1.0 5.0 0.00 0.00 0.00 62 1018.6
20260506221006 59 360 2.0 5.0 0.00 0.00 0.00 62 1018.7
20260506220506 59 360 2.0 4.0 0.00 0.00 0.00 61 1018.7
20260506220023 59 360 2.0 4.0 0.00 0.00 0.00 60 1018.8
20260506215503 59 360 2.0 5.0 0.00 0.00 0.00 59 1018.8
20260506215007 59 360 2.0 5.0 0.00 0.00 0.00 58 1018.8
20260506214522 59 360 2.0 3.0 0.00 0.00 0.00 57 1018.8
20260506214006 59 360 0.0 3.0 0.00 0.00 0.00 56 1018.8
20260506213508 59 360 2.0 3.0 0.00 0.00 0.00 55 1018.8
20260506213026 59 360 1.0 3.0 0.00 0.00 0.00 54 1018.8
20260506212509 59 360 1.0 3.0 0.00 0.00 0.00 54 1018.7
20260506212008 59 360 1.0 5.0 0.00 0.00 0.00 54 1018.8
20260506211528 59 360 2.0 5.0 0.00 0.00 0.00 53 1018.8
20260506211009 59 360 1.0 5.0 0.00 0.00 0.00 53 1018.8
20260506210508 60 360 3.0 5.0 0.00 0.00 0.00 52 1018.7
20260506210022 60 360 2.0 5.0 0.00 0.00 0.00 53 1018.8
20260506205506 60 360 3.0 5.0 0.00 0.00 0.00 54 1018.8
20260506205005 60 360 2.0 4.0 0.00 0.00 0.00 55 1018.8
20260506204518 60 360 1.0 4.0 0.00 0.00 0.00 55 1018.7
20260506204007 60 360 1.0 3.0 0.00 0.00 0.00 55 1018.7
20260506203511 60 360 0.0 6.0 0.00 0.00 0.00 54 1018.7
20260506203022 60 360 2.0 6.0 0.00 0.00 0.00 54 1018.7
20260506202511 60 360 3.0 6.0 0.00 0.00 0.00 53 1018.7
20260506202009 60 360 2.0 6.0 0.00 0.00 0.00 53 1018.6
20260506201530 60 360 2.0 6.0 0.00 0.00 0.00 51 1018.6
20260506201008 61 360 3.0 6.0 0.00 0.00 0.00 51 1018.6
20260506200504 61 360 3.0 5.0 0.00 0.00 0.00 51 1018.6
20260506200025 61 360 2.0 6.0 0.00 0.00 0.00 51 1018.6
20260506195505 61 360 3.0 6.0 0.00 0.00 0.00 51 1018.6
20260506195005 61 360 3.0 6.0 0.00 0.00 0.00 50 1018.5
20260506194515 62 360 2.0 5.0 0.00 0.00 0.00 50 1018.5
20260506194006 62 360 2.0 4.0 0.00 0.00 0.00 51 1018.5
20260506193507 62 360 2.0 5.0 0.00 0.00 0.00 52 1018.4
20260506193004 62 360 1.0 5.0 0.00 0.00 0.00 54 1018.3
20260506192503 62 360 1.0 4.0 0.00 0.00 0.00 55 1018.3
20260506192003 62 360 1.0 4.0 0.00 0.00 0.00 55 1018.3
20260506191505 62 360 2.0 4.0 0.00 0.00 0.00 56 1018.2
20260506191005 62 360 2.0 6.0 0.00 0.00 0.00 56 1018.1
20260506190505 62 360 2.0 6.0 0.00 0.00 0.00 56 1018.1
20260506190007 63 360 3.0 5.0 0.00 0.00 0.00 56 1018.1
20260506185508 63 360 2.0 5.0 0.00 0.00 0.00 56 1018.0
20260506185006 63 360 1.0 5.0 0.00 0.00 0.00 56 1017.9
20260506184512 63 360 2.0 6.0 0.00 0.00 0.00 56 1017.9
20260506184010 63 360 3.0 6.0 0.00 0.00 0.00 55 1017.8
20260506183507 63 360 3.0 6.0 0.00 0.00 0.00 56 1017.7
20260506183019 64 360 2.0 5.0 0.00 0.00 0.00 55 1017.6
20260506182505 64 360 2.0 5.0 0.00 0.00 0.00 55 1017.5
20260506182009 64 360 3.0 5.0 0.00 0.00 0.00 55 1017.5
20260506181505 64 360 2.0 5.0 0.00 0.00 0.00 55 1017.4
20260506181004 64 360 0.0 4.0 0.00 0.00 0.00 54 1017.4
20260506180504 65 360 2.0 5.0 0.00 0.00 0.00 53 1017.4
20260506180016 65 360 2.0 5.0 0.00 0.00 0.00 53 1017.3
20260506175503 65 360 2.0 5.0 0.00 0.00 0.00 53 1017.3
20260506175004 66 360 0.0 5.0 0.00 0.00 0.00 52 1017.2
20260506174511 66 360 1.0 5.0 0.00 0.00 0.00 52 1017.2
20260506174006 66 360 2.0 4.0 0.00 0.00 0.00 51 1017.1
20260506173505 67 360 1.0 4.0 0.00 0.00 0.00 51 1017.1
20260506173015 67 360 0.0 4.0 0.00 0.00 0.00 50 1017.1
20260506172507 68 360 1.0 4.0 0.00 0.00 0.00 49 1017.2
20260506172008 68 360 2.0 4.0 0.00 0.00 0.00 49 1017.1
20260506171522 69 360 1.0 3.0 0.00 0.00 0.00 47 1017.1
20260506171006 69 360 0.0 3.0 0.00 0.00 0.00 47 1017.1
20260506170511 70 360 1.0 3.0 0.00 0.00 0.00 46 1016.9
20260506170004 71 360 1.0 4.0 0.00 0.00 0.00 45 1016.9
20260506165503 71 360 2.0 4.0 0.00 0.00 0.00 44 1016.8
20260506165005 72 360 1.0 3.0 0.00 0.00 0.00 42 1016.7
20260506164509 72 360 0.0 2.0 0.00 0.00 0.00 40 1016.7
20260506164008 72 360 0.0 2.0 0.00 0.00 0.00 40 1016.7
20260506163503 72 319 0.0 3.0 0.00 0.00 0.00 39 1016.7
20260506163010 73 360 0.0 3.0 0.00 0.00 0.00 40 1016.7
20260506162503 73 360 1.0 4.0 0.00 0.00 0.00 40 1016.7
20260506162006 73 335 1.0 4.0 0.00 0.00 0.00 38 1016.7
20260506161527 74 352 2.0 3.0 0.00 0.00 0.00 39 1016.7
20260506161007 74 342 1.0 3.0 0.00 0.00 0.00 38 1016.7
20260506160509 74 352 1.0 3.0 0.00 0.00 0.00 37 1016.7
20260506160021 74 9 1.0 3.0 0.00 0.00 0.00 37 1016.7
20260506155511 74 5 1.0 3.0 0.00 0.00 0.00 37 1016.7
20260506155009 74 51 0.0 2.0 0.00 0.00 0.00 38 1016.8
20260506154508 74 15 1.0 4.0 0.00 0.00 0.00 38 1016.8
20260506154003 73 58 1.0 4.0 0.00 0.00 0.00 38 1016.8
20260506153503 73 76 0.0 4.0 0.00 0.00 0.00 39 1016.8
20260506153011 73 81 0.0 4.0 0.00 0.00 0.00 38 1016.8
20260506152503 73 75 1.0 4.0 0.00 0.00 0.00 38 1016.8
20260506152007 74 72 2.0 4.0 0.00 0.00 0.00 38 1016.9
20260506151515 74 71 1.0 4.0 0.00 0.00 0.00 38 1016.9
20260506151008 74 83 2.0 4.0 0.00 0.00 0.00 36 1016.9
20260506150506 74 84 2.0 4.0 0.00 0.00 0.00 37 1016.9
20260506150018 75 74 2.0 5.0 0.00 0.00 0.00 36 1016.9
20260506145510 75 66 1.0 5.0 0.00 0.00 0.00 36 1016.8
20260506145010 75 347 1.0 5.0 0.00 0.00 0.00 36 1016.9
20260506144522 75 342 1.0 5.0 0.00 0.00 0.00 37 1016.9
20260506144007 75 352 2.0 5.0 0.00 0.00 0.00 36 1016.9
20260506143507 75 350 2.0 4.0 0.00 0.00 0.00 36 1016.9
20260506143007 74 17 0.0 4.0 0.00 0.00 0.00 37 1016.8
20260506142503 74 88 2.0 4.0 0.00 0.00 0.00 37 1016.8
20260506142007 74 83 2.0 4.0 0.00 0.00 0.00 36 1016.8
20260506141513 74 75 2.0 7.0 0.00 0.00 0.00 37 1016.9
20260506141007 75 82 1.0 7.0 0.00 0.00 0.00 37 1016.9
20260506140504 75 82 3.0 7.0 0.00 0.00 0.00 37 1016.9
20260506140018 75 71 1.0 5.0 0.00 0.00 0.00 36 1016.9
20260506135508 75 296 0.0 5.0 0.00 0.00 0.00 36 1016.9
20260506135008 75 15 1.0 5.0 0.00 0.00 0.00 36 1016.9
20260506134522 75 5 2.0 9.0 0.00 0.00 0.00 36 1016.9
20260506134008 74 225 2.0 9.0 0.00 0.00 0.00 36 1017.0
20260506133508 75 351 4.0 8.0 0.00 0.00 0.00 35 1017.0
20260506133023 75 336 2.0 6.0 0.00 0.00 0.00 36 1017.0
20260506132512 75 337 2.0 6.0 0.00 0.00 0.00 35 1017.0
20260506132006 75 297 3.0 6.0 0.00 0.00 0.00 36 1017.0
20260506131513 74 352 3.0 6.0 0.00 0.00 0.00 36 1016.9
20260506131006 74 329 1.0 4.0 0.00 0.00 0.00 36 1017.0